Location: Hepcat Sky Observatory
(29.9800°N, 95.6500°W)
Time: 00:24:56
(UTC-05:00)

Daily predictions for brighter satellites

Satellite Brightness Start Highest point End
(mag) Time Altitude Azimuth Time Altitude Azimuth Time Altitude Azimuth
FALCON 9 R/B 4.4 03:17:39 70° NE 03:17:39 70° NE 03:49:04 10° E
Cosmos 2219 Rocket 3.2 04:48:29 38° ESE 04:49:07 39° ESE 04:54:17 10° NE
COSMOS 2428 3.2 04:51:56 56° NNE 04:51:56 56° NNE 04:56:23 10° NNE
Okean O Rocket 3.2 04:51:33 10° NNE 04:54:02 32° NNE 04:54:02 32° NNE
Aureole 3 Rocket 4.4 04:59:50 70° W 05:00:09 71° W 05:09:17 10° N
DELTA 2 R/B (1) 4.5 05:02:43 39° N 05:02:43 39° N 05:07:30 10° NE
Lacrosse 4 Rocket 2.8 05:03:25 37° E 05:03:25 37° E 05:06:55 10° SE
Cosmos 2360 Rocket 3.9 05:09:38 21° NNW 05:09:38 21° NNW 05:11:56 10° N
Delta 142 4.4 05:10:30 68° SSW 05:10:45 69° SSW 05:16:35 10° ESE
Cosmos 2184 Rocket 4.0 05:07:23 10° NNW 05:12:43 59° NW 05:12:43 59° NW
Cosmos 2237 Rocket 3.4 05:13:01 16° SSE 05:17:01 39° ESE 05:22:17 10° NE
ADEOS II 2.0 05:12:45 10° NNE 05:18:02 86° ESE 05:18:43 69° S
Meteor 2-4 Rocket 4.3 05:18:22 10° S 05:23:51 54° E 05:29:11 10° NNE
ASTRO E2 4.3 05:31:46 25° SSE 05:31:46 25° SSE 05:33:49 10° SE
GOES 2 Rocket 3.1 05:30:18 71° SW 05:30:39 76° S 05:36:22 10° E
Cosmos 1666 4.3 05:28:14 10° NNE 05:31:49 35° E 05:35:23 10° SSE
USA 215 4.0 05:25:48 10° ESE 05:32:05 50° NE 05:38:21 10° NNW
Cosmos 2333 Rocket 2.1 05:35:41 33° SSW 05:38:22 90° WNW 05:44:07 10° NNE
Cosmos 1743 2.6 05:35:28 10° N 05:39:19 86° E 05:40:33 42° S
USA 229 DEB 3.7 05:38:14 39° SW 05:40:48 65° WNW 05:47:40 10° NNE
USA 229 3.6 05:38:19 39° SW 05:40:54 65° WNW 05:47:45 10° NNE
PAYLOAD B 4.4 05:35:50 10° N 05:41:15 52° WNW 05:42:35 43° WSW
PSLV R/B 3.8 05:41:51 10° N 05:45:54 47° WNW 05:45:54 47° WNW
Cosmos 2154 Rocket 3.9 05:41:24 10° NNW 05:47:32 67° W 05:53:40 10° S
Okean 1-7 Rocket 3.5 05:45:35 25° S 05:48:13 81° W 05:52:43 10° N
EO 1 Del DPAF 3.1 05:48:44 58° SW 05:49:05 61° W 05:52:54 10° NNW
Meteor 1-31 Rocket 3.1 05:45:32 10° NNE 05:49:19 64° E 05:52:45 12° S
NOSS 3-1 (A) 4.5 05:48:15 10° S 05:53:29 41° ESE 05:59:07 10° NE
RUBIN 8/PSLV 4.4 05:49:12 10° N 05:53:30 88° W 05:57:17 13° SSW
NOSS 3-1 (C) 3.6 05:50:45 12° SSW 05:55:58 64° ESE 06:01:59 10° NE
OTV 4 0.6 05:56:10 58° SE 05:56:10 58° SE 05:58:47 10° ENE
Hubble Space Telescope 1.5 05:59:49 31° SSW 06:01:14 43° SSE 06:05:10 10° E
Cosmos 2181 Rocket 4.0 05:56:15 10° SSW 06:02:19 60° W 06:08:31 10° N
Meteor PRIRODA 3.8 05:59:03 10° N 06:02:43 52° WNW 06:04:10 31° SW
Cosmos 468 Rocket 4.2 06:02:26 24° SW 06:05:14 49° WNW 06:10:17 10° N
SL-8 Rocket 4.2 06:01:10 10° N 06:07:21 75° E 06:13:30 10° S
Tiangong 2 3.0 06:06:42 13° NNW 06:08:58 27° NNE 06:11:42 10° E
Cosmos 1844 3.7 06:05:17 10° NNW 06:11:03 88° ENE 06:16:42 10° SSE
Iridium 2 4.1 06:07:16 10° N 06:11:04 65° E 06:14:53 10° S
Cosmos 1898 Rocket 3.6 06:07:13 10° NNW 06:12:25 77° ENE 06:17:34 10° SSE
GPS 2-04 Rocket1 2.7 06:10:39 30° W 06:12:26 64° NNW 06:16:14 10° ENE
SL-16 R/B 3.1 06:08:03 10° S 06:13:29 51° ESE 06:18:57 10° NNE
CZ-4B R/B 4.3 06:13:10 10° NNW 06:17:42 26° WNW 06:20:11 19° WSW
ERS-2 2.8 06:18:03 10° N 06:21:23 33° WNW 06:23:41 17° SW
Cosmos 1980 4.1 06:19:17 13° SW 06:24:00 43° WNW 06:29:21 10° N
VEP-3 3.7 06:12:51 17° WSW 06:24:01 56° S 06:29:30 10° ESE
Cosmos 2341 Rocket 4.4 06:22:32 10° NNW 06:28:15 40° W 06:33:58 10° SSW
COSMO-SKYMED 1 3.6 06:25:43 10° SSE 06:29:53 50° ENE 06:34:05 10° N
Cosmos 1025 Rocket 3.9 06:28:40 10° SW 06:32:26 28° W 06:36:15 10° NNW
Cosmos 1763 Rocket 3.6 06:27:42 10° SSW 06:32:38 53° WNW 06:37:37 10° N
Cosmos 2219 Rocket 3.4 06:30:16 15° W 06:33:07 21° WNW 06:37:19 10° NNW
Cosmos 1437 3.6 06:30:37 10° SW 06:33:32 30° W 06:36:28 10° NNW
Cosmos 2218 Rocket 4.0 06:28:11 10° N 06:34:33 78° W 06:40:49 10° S
Cosmos 858 Rocket 4.4 06:29:20 10° NNW 06:34:35 74° WSW 06:39:47 10° S
Cosmos 1726 Rocket 3.5 06:35:32 10° N 06:40:00 81° W 06:44:27 10° S
Meteor 1-28 Rocket 4.3 06:37:07 10° SSE 06:40:48 50° ENE 06:44:30 10° N
Lacrosse 4 Rocket 3.2 06:40:03 12° W 06:41:12 13° WSW 06:43:05 10° SW
Cosmos 1937 Rocket 3.5 06:36:16 10° NNW 06:41:35 78° WSW 06:46:50 10° S
Cosmos 1892 Rocket 3.8 06:39:13 10° SSW 06:43:21 45° W 06:47:32 10° N
Okean-O 3.7 06:42:18 10° NNW 06:45:58 26° WNW 06:49:38 10° SW
Cosmos 1844 Rocket 3.4 06:41:19 10° NW 06:46:05 30° WSW 06:50:49 10° SSW
Cosmos 841 Rocket 3.7 06:41:37 10° SSW 06:46:36 49° WNW 06:51:34 10° N
Radarsat Rocket 3.9 06:42:24 10° N 06:48:13 68° WNW 06:54:02 10° SSW
CZ-2C R/B 4.5 06:45:35 10° NNE 06:50:17 34° E 06:54:54 10° SSE
NOAA 6 4.5 06:49:49 10° N 06:54:35 41° WNW 06:59:21 10° SW
Cosmos 1441 Rocket 3.7 06:51:04 10° SSW 06:54:47 41° W 06:58:34 10° N
